K4VI Weather Reports


Display with metric or nautical units.
time (UTC)temp
F
wind
direction
speed
MPH
gust
MPH
rain 1hr
in
rain 24hr
in
rain mn
in
humidity
%
barometer
mb
20260503002003 54 109 5.0 11.0 0.00 0.00 0.00 24 1035.1
20260503001503 54 114 5.0 10.0 0.00 0.00 0.00 24 1035.2
20260503001217 54 113 5.0 10.0 0.00 0.00 0.00 24 1035.2
20260503000504 54 110 6.0 13.0 0.00 0.00 0.00 23 1035.2
20260503000003 55 119 6.0 13.0 0.00 0.00 0.00 23 1035.2
20260502235503 55 124 5.0 10.0 0.00 0.00 0.00 22 1035.2
20260502235003 55 117 5.0 10.0 0.00 0.00 0.00 24 1035.3
20260502234503 55 112 5.0 13.0 0.00 0.00 0.00 24 1035.3
20260502234003 55 117 5.0 13.0 0.00 0.00 0.00 22 1035.3
20260502233503 56 129 5.0 11.0 0.00 0.00 0.00 23 1035.3
20260502233003 55 117 5.0 13.0 0.00 0.00 0.00 23 1035.3
20260502232718 55 109 6.0 13.0 0.00 0.00 0.00 24 1035.3
20260502232221 55 105 6.0 16.0 0.00 0.00 0.00 23 1035.3
20260502231503 55 103 4.0 18.0 0.00 0.00 0.00 23 1035.3
20260502231217 55 106 5.0 18.0 0.00 0.00 0.00 24 1035.3
20260502230503 54 106 6.0 13.0 0.00 0.00 0.00 26 1035.4
20260502230231 54 107 6.0 13.0 0.00 0.00 0.00 25 1035.4
20260502225503 55 119 6.0 12.0 0.00 0.00 0.00 23 1035.4
20260502225219 55 119 5.0 15.0 0.00 0.00 0.00 23 1035.4
20260502224503 55 108 6.0 16.0 0.00 0.00 0.00 23 1035.4
20260502224003 56 124 3.0 10.0 0.00 0.00 0.00 23 1035.4
20260502223503 56 141 3.0 7.0 0.00 0.00 0.00 22 1035.5
20260502223003 55 116 4.0 11.0 0.00 0.00 0.00 22 1035.6
20260502222503 56 119 5.0 11.0 0.00 0.00 0.00 21 1035.7
20260502222003 56 129 5.0 15.0 0.00 0.00 0.00 23 1035.6
20260502221720 56 134 5.0 15.0 0.00 0.00 0.00 22 1035.8
20260502221003 55 122 6.0 15.0 0.00 0.00 0.00 22 1035.8
20260502220503 55 118 6.0 14.0 0.00 0.00 0.00 23 1035.8
20260502220219 55 120 5.0 14.0 0.00 0.00 0.00 24 1035.8
20260502215503 55 128 5.0 11.0 0.00 0.00 0.00 24 1036.0
20260502215003 55 127 6.0 14.0 0.00 0.00 0.00 23 1036.0
20260502214503 55 144 5.0 14.0 0.00 0.00 0.00 24 1036.0
20260502214003 55 152 4.0 10.0 0.00 0.00 0.00 22 1036.2
20260502213503 55 139 4.0 10.0 0.00 0.00 0.00 25 1036.3
20260502213003 55 132 5.0 13.0 0.00 0.00 0.00 24 1036.4
20260502212720 55 122 6.0 13.0 0.00 0.00 0.00 23 1036.4
20260502212218 55 141 5.0 10.0 0.00 0.00 0.00 25 1036.4
20260502211721 54 162 4.0 8.0 0.00 0.00 0.00 25 1036.4
20260502211003 54 165 4.0 9.0 0.00 0.00 0.00 25 1036.7
20260502210503 54 219 4.0 9.0 0.00 0.00 0.00 25 1036.7
20260502210003 54 219 4.0 8.0 0.00 0.00 0.00 26 1036.8
20260502205718 54 200 4.0 11.0 0.00 0.00 0.00 25 1036.8
20260502205003 54 179 3.0 11.0 0.00 0.00 0.00 26 1036.8
20260502204503 53 194 3.0 8.0 0.00 0.00 0.00 28 1036.8
20260502204003 52 240 4.0 10.0 0.00 0.00 0.00 26 1036.9
20260502203504 52 233 5.0 11.0 0.00 0.00 0.00 28 1036.9
20260502203003 53 207 5.0 12.0 0.00 0.00 0.00 25 1036.9
20260502202503 52 238 4.0 12.0 0.00 0.01 0.00 29 1037.0
20260502202003 52 189 5.0 13.0 0.00 0.01 0.00 29 1037.0
20260502201721 52 182 4.0 13.0 0.00 0.01 0.00 28 1037.0
20260502201003 52 296 5.0 10.0 0.00 0.02 0.00 28 1037.0
20260502200717 52 295 5.0 10.0 0.00 0.02 0.00 29 1037.0
20260502200003 52 158 5.0 14.0 0.00 0.03 0.00 30 1037.1
20260502195503 51 148 5.0 14.0 0.00 0.04 0.00 30 1037.0
20260502195003 51 282 4.0 12.0 0.00 0.05 0.00 31 1037.1
20260502194719 51 296 5.0 12.0 0.00 0.06 0.00 29 1037.2
20260502194003 51 282 5.0 9.0 0.00 0.07 0.00 31 1037.2
20260502193503 51 267 3.0 9.0 0.00 0.08 0.00 30 1037.2
20260502193004 51 253 4.0 8.0 0.00 0.10 0.00 30 1037.3
20260502192503 50 155 5.0 13.0 0.00 0.11 0.00 31 1037.3
20260502192219 50 146 5.0 13.0 0.00 0.12 0.00 31 1037.3
20260502191503 50 174 4.0 11.0 0.00 0.15 0.00 32 1037.4
20260502191003 50 158 5.0 11.0 0.00 0.16 0.00 31 1037.5
20260502190503 50 157 4.0 11.0 0.00 0.16 0.00 32 1037.5
20260502190004 49 273 4.0 10.0 0.00 0.17 0.00 33 1037.6
20260502185504 48 288 4.0 11.0 0.00 0.18 0.00 36 1037.6
20260502185217 49 286 4.0 11.0 0.00 0.18 0.00 32 1037.7
20260502184720 49 172 4.0 11.0 0.00 0.19 0.00 32 1037.8
20260502184003 49 156 4.0 10.0 0.00 0.20 0.00 35 1037.8
20260502183721 49 130 6.0 17.0 0.00 0.21 0.00 33 1037.9
20260502183003 48 121 5.0 17.0 0.00 0.23 0.00 35 1037.7
20260502182503 48 215 3.0 10.0 0.00 0.24 0.00 38 1037.9
20260502182003 47 191 4.0 10.0 0.00 0.25 0.00 38 1038.0
20260502181503 46 212 4.0 11.0 0.00 0.26 0.00 38 1038.1
20260502181003 46 264 4.0 11.0 0.00 0.27 0.00 36 1038.2
20260502180719 46 269 6.0 12.0 0.00 0.29 0.00 33 1038.3
20260502170503 44 286 4.0 10.0 0.00 0.43 0.00 40 1038.6
20260502164003 43 283 5.0 11.0 0.00 0.47 0.00 38 1038.6
20260502163503 43 258 4.0 10.0 0.00 0.47 0.00 43 1038.7
20260502163220 43 229 3.0 8.0 0.00 0.47 0.00 45 1038.7
20260502162503 42 272 3.0 8.0 0.00 0.47 0.00 49 1038.6
20260502162003 42 294 4.0 10.0 0.00 0.47 0.00 49 1038.6
20260502161719 42 304 5.0 10.0 0.00 0.47 0.00 47 1038.6
20260502161003 42 304 5.0 10.0 0.00 0.47 0.00 46 1038.6
20260502160503 42 304 4.0 9.0 0.00 0.47 0.00 45 1038.5
20260502160218 42 308 3.0 9.0 0.00 0.47 0.00 48 1038.5
20260502152003 39 244 4.0 9.0 0.00 0.48 0.00 56 1038.3
20260502151503 39 231 3.0 5.0 0.00 0.48 0.00 56 1038.3
20260502151003 39 233 3.0 7.0 0.00 0.48 0.00 54 1038.3
20260502150503 39 242 3.0 7.0 0.00 0.48 0.00 53 1038.3
20260502130503 33 316 3.0 8.0 0.00 0.48 0.00 69 1037.9
20260502123719 29 338 0.0 1.0 0.00 0.48 0.00 77 1037.5
20260502123003 29 338 0.0 1.0 0.00 0.48 0.00 77 1037.6
20260502122503 29 338 0.0 2.0 0.00 0.48 0.00 78 1037.5
20260502122003 29 337 1.0 2.0 0.00 0.48 0.00 78 1037.5
20260502121721 29 337 1.0 2.0 0.00 0.48 0.00 78 1037.4
20260502121003 29 335 0.0 3.0 0.00 0.48 0.00 78 1037.4
20260502120717 29 335 0.0 3.0 0.00 0.48 0.00 78 1037.4
20260502115503 29 335 0.0 2.0 0.00 0.48 0.00 78 1037.4
20260502115221 29 334 1.0 2.0 0.00 0.48 0.00 78 1037.4
20260502114503 30 329 1.0 2.0 0.00 0.48 0.00 78 1037.4
20260502113503 30 336 1.0 3.0 0.00 0.48 0.00 78 1037.4
20260502113004 29 340 1.0 2.0 0.00 0.48 0.00 79 1037.4
20260502112503 30 340 1.0 2.0 0.00 0.48 0.00 79 1037.3
20260502112003 30 340 0.0 2.0 0.00 0.48 0.00 78 1037.4
20260502111503 30 339 1.0 2.0 0.00 0.48 0.00 77 1037.4
20260502111220 30 339 1.0 2.0 0.00 0.48 0.00 77 1037.3
20260502110718 31 337 1.0 3.0 0.00 0.48 0.00 76 1037.3
20260502110221 31 328 2.0 4.0 0.00 0.48 0.00 75 1037.3
20260502105503 32 317 3.0 8.0 0.00 0.48 0.00 74 1037.3
20260502105217 32 313 4.0 8.0 0.00 0.48 0.00 73 1037.4
20260502104503 32 309 4.0 8.0 0.00 0.48 0.00 73 1037.4
20260502104003 32 311 4.0 8.0 0.00 0.48 0.00 73 1037.4
20260502103721 32 312 4.0 7.0 0.00 0.48 0.00 73 1037.4
20260502103003 32 315 4.0 8.0 0.00 0.48 0.00 74 1037.4
20260502102503 32 312 3.0 5.0 0.00 0.48 0.00 75 1037.4
20260502102003 31 315 3.0 4.0 0.00 0.48 0.00 76 1037.4
20260502101503 31 324 3.0 4.0 0.00 0.48 0.00 76 1037.3
20260502101003 30 338 2.0 4.0 0.00 0.48 0.00 77 1037.3
20260502100503 30 347 1.0 4.0 0.00 0.48 0.00 78 1037.2
20260502091503 30 313 0.0 1.0 0.00 0.48 0.00 80 1037.2
20260502091003 30 312 0.0 1.0 0.00 0.48 0.00 80 1037.2
20260502090503 31 311 0.0 1.0 0.00 0.48 0.00 80 1037.2
20260502090217 31 310 0.0 2.0 0.00 0.48 0.00 80 1037.2
20260502071503 30 328 2.0 4.0 0.00 0.48 0.00 81 1037.4
20260502071003 30 335 2.0 3.0 0.00 0.48 0.00 82 1037.4
20260502070503 30 342 1.0 3.0 0.00 0.48 0.00 82 1037.3
20260502070003 30 337 1.0 3.0 0.00 0.48 0.00 82 1037.4
20260502065503 30 336 1.0 3.0 0.00 0.48 0.00 82 1037.3
20260502065003 30 336 1.0 3.0 0.00 0.48 0.00 82 1037.3
20260502064717 30 336 1.0 3.0 0.00 0.48 0.00 82 1037.3
20260502064003 30 359 1.0 3.0 0.00 0.48 0.00 81 1037.4
20260502063503 30 40 0.0 2.0 0.00 0.48 0.00 81 1037.4
20260502063221 30 42 0.0 2.0 0.00 0.48 0.00 81 1037.4
20260502062503 31 26 0.0 2.0 0.00 0.48 0.00 80 1037.4
20260502062217 31 24 0.0 2.0 0.00 0.48 0.00 80 1037.3
20260502061503 31 0 0.0 0.0 0.00 0.48 0.00 80 1037.2
20260502061003 31 0 0.0 0.0 0.00 0.48 0.00 79 1037.3
20260502060503 32 0 0.0 0.0 0.00 0.48 0.00 79 1037.2
20260502060003 32 0 0.0 0.0 0.00 0.48 0.00 78 1037.2
20260502055717 32 0 0.0 0.0 0.00 0.48 0.48 78 1037.2
20260502055003 33 0 0.0 0.0 0.00 0.48 0.48 78 1037.2
20260502054503 33 22 0.0 3.0 0.00 0.48 0.48 78 1037.2
20260502054221 33 42 0.0 3.0 0.00 0.48 0.48 78 1037.1
20260502053503 33 74 0.0 2.0 0.00 0.48 0.48 78 1037.1
20260502053217 33 74 0.0 1.0 0.00 0.48 0.48 78 1037.1
20260502052503 34 74 0.0 1.0 0.00 0.48 0.48 79 1037.0
20260502052003 34 74 0.0 2.0 0.00 0.48 0.48 79 1037.0
20260502051503 34 74 0.0 2.0 0.00 0.48 0.48 79 1037.0
20260502051219 34 75 0.0 2.0 0.00 0.48 0.48 79 1037.1
20260502050716 34 75 0.0 2.0 0.00 0.48 0.48 79 1037.1
20260502050003 33 74 0.0 1.0 0.00 0.48 0.48 79 1037.0
20260502045717 33 74 0.0 1.0 0.00 0.48 0.48 79 1037.1
20260502045003 33 0 0.0 0.0 0.00 0.48 0.48 80 1037.1
20260502044719 33 0 0.0 0.0 0.00 0.48 0.48 80 1037.1
20260502044003 34 0 0.0 0.0 0.00 0.48 0.48 80 1037.2
20260502043503 34 74 0.0 2.0 0.00 0.48 0.48 79 1037.3
20260502043003 34 74 0.0 2.0 0.00 0.48 0.48 79 1037.2
20260502042503 34 74 0.0 2.0 0.00 0.48 0.48 78 1037.2
20260502042003 34 74 0.0 1.0 0.00 0.48 0.48 78 1037.2
20260502041503 34 0 0.0 0.0 0.00 0.48 0.48 77 1037.2
20260502041003 34 0 0.0 0.0 0.00 0.48 0.48 77 1037.2
20260502040503 34 74 0.0 1.0 0.00 0.48 0.48 77 1037.2
20260502040220 34 74 0.0 1.0 0.00 0.48 0.48 76 1037.2
20260502035503 34 74 0.0 1.0 0.00 0.48 0.48 77 1037.1
20260502035003 34 74 0.0 2.0 0.00 0.48 0.48 77 1037.1
20260502034503 34 74 1.0 2.0 0.00 0.48 0.48 76 1037.0
20260502034004 35 76 1.0 2.0 0.00 0.48 0.48 75 1037.0
20260502033720 35 85 0.0 3.0 0.00 0.48 0.48 76 1036.9
20260502033218 35 90 1.0 4.0 0.00 0.48 0.48 74 1036.8
20260502032721 35 90 1.0 5.0 0.00 0.48 0.48 74 1036.7
20260502032003 35 104 1.0 5.0 0.00 0.48 0.48 73 1036.6
20260502031503 35 117 1.0 2.0 0.00 0.48 0.48 74 1036.4
20260502031220 35 117 1.0 3.0 0.00 0.48 0.48 74 1036.4
20260502030503 35 112 1.0 3.0 0.00 0.48 0.48 73 1036.3
20260502030003 36 93 1.0 4.0 0.00 0.48 0.48 72 1036.2
20260502025503 36 88 1.0 4.0 0.00 0.48 0.48 71 1036.1
20260502025003 36 93 1.0 3.0 0.00 0.48 0.48 71 1036.0
20260502024503 36 96 1.0 3.0 0.00 0.48 0.48 71 1036.0
20260502024003 36 98 1.0 3.0 0.00 0.48 0.48 71 1035.9
20260502023503 36 97 1.0 3.0 0.00 0.48 0.48 72 1035.8
20260502023003 36 97 1.0 3.0 0.00 0.48 0.48 73 1035.7
20260502022503 36 96 1.0 3.0 0.00 0.48 0.48 72 1035.8
20260502022003 36 93 1.0 4.0 0.00 0.48 0.48 71 1035.6
20260502021503 36 91 1.0 4.0 0.00 0.48 0.48 71 1035.6
20260502021003 36 91 1.0 4.0 0.00 0.48 0.48 71 1035.4
20260502020503 36 86 1.0 4.0 0.00 0.48 0.48 70 1035.2
20260502020221 36 84 1.0 6.0 0.00 0.48 0.48 70 1035.2
20260502015503 36 99 1.0 6.0 0.00 0.48 0.48 68 1035.1
20260502015003 37 117 1.0 4.0 0.00 0.48 0.48 68 1035.1
20260502014503 37 114 1.0 6.0 0.00 0.48 0.48 68 1035.0
20260502014003 37 107 1.0 6.0 0.00 0.48 0.48 67 1034.9
20260502013503 38 103 1.0 3.0 0.00 0.48 0.48 66 1034.8
20260502013003 38 102 1.0 4.0 0.00 0.48 0.48 66 1034.7
20260502012503 38 112 1.0 4.0 0.00 0.48 0.48 64 1034.6
20260502012003 39 134 0.0 2.0 0.00 0.48 0.48 63 1034.5
20260502011503 39 103 2.0 8.0 0.00 0.48 0.48 62 1034.4
20260502011003 39 97 3.0 8.0 0.00 0.48 0.48 59 1034.3
20260502010503 40 105 3.0 8.0 0.00 0.48 0.48 58 1034.2
20260502010003 40 112 3.0 8.0 0.00 0.48 0.48 57 1034.1
20260502005503 41 108 3.0 9.0 0.00 0.48 0.48 57 1034.0
20260502005003 41 106 4.0 9.0 0.00 0.48 0.48 56 1034.0
20260502004721 41 104 4.0 9.0 0.00 0.48 0.48 55 1034.0
20260502004003 41 107 5.0 12.0 0.00 0.48 0.48 53 1034.0
20260502003503 42 110 5.0 12.0 0.00 0.48 0.48 53 1033.9
20260502003003 43 111 5.0 12.0 0.00 0.48 0.48 54 1033.9
20260502002503 43 109 4.0 11.0 0.00 0.48 0.48 50 1033.9